OBJECT BS (43822 NORAD) Tracking and Keplerian Element Data

This shows tracking and keplerian element data for the satellite.

Feedback or suggestion? Click here.




ElementValue
Catalog43822
NameOBJECT BS
Epoch Orbit441
Epoch Day45.15976466
Epoch Year2019
RAAN118.6007
Inclination97.7589
Eccentricity0.0015949
Argument of Perigee24.9237
Mean Anonmoly335.275
Mean Motion14.9498099
Decay Rate2.67E-06
L11 43822U 18099BS 19045.15976466 .00000267 00000-0 29678-4 0 9990
L22 43822 97.7589 118.6007 0015949 24.9237 335.2750 14.94980990 4411

Live tracking and technical data element details for OBJECT BS (NORAD 43822). OBJECT BS can be tracked NOW for your location showing map with azimuth and elevation plus other details from your city location.

Track the satellite on the map from your city or location and see movement details for azimuth, elevation, latitude, longitude, range, height, and movement on the map or in text.







IsCatalogInMostPopularTable: catalog: 43822, numindb: 2
Update: records affected: 1



GetName: 43822 OBJECT BS

Hit Count: updated at: Thu, 21 Feb 2019 11:48:29 GMT